9W2KHE-13 Weather Reports


time (UTC)temp
C
wind
direction
speed
KPH
gust
KPH
rain 1hr
cm
rain 24hr
cm
rain mn
cm
humidity
%
barometer
mb
20260509163935 30 135 0.0 0.0 0.00 0.00 0.00 70 1010.9
20260509163434 30 135 0.0 0.0 0.00 0.00 0.00 70 1011.0
20260509161931 30 135 0.0 0.0 0.00 0.00 0.00 70 1011.0
20260509160429 30 135 0.0 0.0 0.00 0.00 0.00 70 1011.1
20260509155927 30 135 0.0 0.0 0.00 0.00 0.00 70 1011.1
20260509155426 30 135 0.0 0.0 0.00 0.00 0.00 70 1011.2
20260509154925 30 135 0.0 0.0 0.00 0.00 0.00 70 1011.1
20260509154424 30 135 0.0 0.0 0.00 0.00 0.00 70 1011.2
20260509153924 30 135 0.0 0.0 0.00 0.00 0.00 70 1011.2
20260509153422 30 135 0.0 0.0 0.00 0.00 0.00 70 1011.1
20260509152921 30 135 0.0 0.0 0.00 0.00 0.00 70 1011.2
20260509152420 30 135 0.0 0.0 0.00 0.00 0.00 70 1011.3
20260509151919 30 135 0.0 0.0 0.00 0.00 0.00 69 1011.1
20260509151419 30 135 0.0 0.0 0.00 0.00 0.00 69 1011.1
20260509150916 30 135 0.0 0.0 0.00 0.00 0.00 69 1011.1
20260509150415 30 135 0.0 0.0 0.00 0.00 0.00 69 1011.1
20260509145914 30 135 0.0 0.0 0.00 0.00 0.00 69 1011.1
20260509145413 30 135 0.0 0.0 0.00 0.00 0.00 69 1010.9
20260509144914 30 135 0.0 0.0 0.00 0.00 0.00 69 1011.1
20260509144411 30 135 0.0 0.0 0.00 0.00 0.00 69 1011.0
20260509143910 30 135 0.0 0.0 0.00 0.00 0.00 69 1010.9
20260509143409 30 135 0.0 0.0 0.00 0.00 0.00 69 1010.9
20260509142908 30 135 0.0 0.0 0.00 0.00 0.00 69 1011.1
20260509142408 30 135 0.0 0.0 0.00 0.00 0.00 69 1010.8
20260509141906 30 135 0.0 0.0 0.00 0.00 0.00 69 1010.8
20260509141405 30 135 0.0 0.0 0.00 0.00 0.00 69 1010.7
20260509140904 30 135 0.0 0.0 0.00 0.00 0.00 69 1010.8
20260509140403 30 135 0.0 0.0 0.00 0.00 0.00 69 1010.7
20260509135903 30 135 0.0 0.0 0.00 0.00 0.00 69 1010.7
20260509135400 30 135 0.0 0.0 0.00 0.00 0.00 68 1010.6
20260509134900 30 135 0.0 0.0 0.00 0.00 0.00 68 1010.6
20260509134359 30 135 0.0 0.0 0.00 0.00 0.00 68 1010.6
20260509133858 30 135 0.0 0.0 0.00 0.00 0.00 68 1010.6
20260509133358 30 135 0.0 0.0 0.00 0.00 0.00 68 1010.5
20260509132855 30 135 0.0 0.0 0.00 0.00 0.00 68 1010.4
20260509132354 30 135 0.0 0.0 0.00 0.00 0.00 68 1010.2
20260509131853 30 135 0.0 0.0 0.00 0.00 0.00 68 1010.2
20260509130852 30 135 0.0 0.0 0.00 0.00 0.00 68 1010.0
20260509130350 30 135 0.0 0.0 0.00 0.00 0.00 68 1010.1
20260509125849 30 135 0.0 0.0 0.00 0.00 0.00 68 1010.1
20260509125348 30 135 0.0 0.0 0.00 0.00 0.00 68 1010.0
20260509124848 30 135 0.0 0.0 0.00 0.00 0.00 68 1010.1
20260509124347 30 135 0.0 0.0 0.00 0.00 0.00 68 1010.0
20260509123845 30 135 0.0 0.0 0.00 0.00 0.00 68 1009.9
20260509123344 30 135 0.0 0.0 0.00 0.00 0.00 68 1010.0
20260509122843 30 135 0.0 0.0 0.00 0.00 0.00 68 1010.0
20260509122342 30 135 0.0 0.0 0.00 0.00 0.00 68 1010.0
20260509121842 30 135 0.0 0.0 0.00 0.00 0.00 67 1009.8
20260509121340 30 135 0.0 0.0 0.00 0.00 0.00 67 1009.9
20260509120839 30 135 0.0 0.0 0.00 0.00 0.00 67 1009.7
20260509120338 30 135 0.0 0.0 0.00 0.00 0.00 67 1009.7
20260509115837 30 135 0.0 0.0 0.00 0.00 0.00 67 1009.6
20260509114333 31 135 0.0 0.0 0.00 0.00 0.00 67 1009.3
20260509113832 31 135 0.0 0.0 0.00 0.00 0.00 67 1009.3
20260509113331 31 157 0.0 0.0 0.00 0.00 0.00 67 1009.2
20260509112831 31 157 0.0 0.0 0.00 0.00 0.00 67 1009.1
20260509112329 31 157 0.0 0.0 0.00 0.00 0.00 67 1008.9
20260509111828 31 157 0.0 0.0 0.00 0.00 0.00 67 1008.9
20260509111327 31 157 0.0 0.0 0.00 0.00 0.00 67 1008.8
20260509110826 31 157 0.0 0.0 0.00 0.00 0.00 67 1008.8
20260509110326 31 157 0.0 0.0 0.00 0.00 0.00 67 1008.7
20260509105824 31 157 0.0 0.0 0.00 0.00 0.00 67 1008.6
20260509105323 31 157 0.0 0.0 0.00 0.00 0.00 67 1008.6
20260509104822 31 157 0.0 0.0 0.00 0.00 0.00 67 1008.6
20260509104321 31 157 0.0 0.0 0.00 0.00 0.00 67 1008.6
20260509103821 31 157 0.0 0.0 0.00 0.00 0.00 67 1008.4
20260509103318 31 157 0.0 0.0 0.00 0.00 0.00 66 1008.5
20260509102317 31 157 0.0 0.0 0.00 0.00 0.00 66 1008.4
20260509101316 31 157 0.0 0.0 0.00 0.00 0.00 66 1008.4
20260509100813 31 157 0.0 0.0 0.00 0.00 0.00 66 1008.4
20260509095811 31 157 0.0 0.0 0.00 0.00 0.00 66 1008.3
20260509095310 31 157 0.0 0.0 0.00 0.00 0.00 66 1008.3
20260509094810 31 157 0.0 0.0 0.00 0.00 0.00 66 1008.3
20260509094308 31 157 0.0 0.0 0.00 0.00 0.00 65 1008.0
20260509093306 31 157 0.0 0.0 0.00 0.00 0.00 65 1008.2
20260509092805 31 157 0.0 0.0 0.00 0.00 0.00 65 1008.1
20260509091302 31 135 0.0 0.0 0.00 0.00 0.00 64 1008.1
20260509090300 31 154 0.0 0.0 0.00 0.00 0.00 64 1008.2
20260509085800 31 152 0.0 0.0 0.00 0.00 0.00 64 1008.3
20260509084757 31 147 0.0 0.0 0.00 0.00 0.00 64 1008.5
20260509083755 32 157 0.0 0.0 0.00 0.00 0.00 63 1008.5
20260509083255 32 148 0.0 0.0 0.00 0.00 0.00 63 1008.5
20260509082752 32 135 0.0 0.0 0.00 0.00 0.00 62 1008.5
20260509081750 32 135 0.0 0.0 0.00 0.00 0.00 62 1008.6
20260509081250 32 135 0.0 0.0 0.00 0.00 0.00 62 1008.9
20260509080247 32 141 0.0 0.0 0.00 0.00 0.00 62 1008.8
20260509075746 32 149 0.0 0.0 0.00 0.00 0.00 62 1008.9
20260509075245 32 139 0.0 0.0 0.00 0.00 0.00 62 1008.9
20260509074744 32 135 0.0 0.0 0.00 0.00 0.00 62 1008.9
20260509073742 32 165 0.0 0.0 0.00 0.00 0.00 63 1008.9
20260509073241 32 140 0.0 0.0 0.00 0.00 0.00 64 1009.1
20260509072740 32 135 0.0 0.0 0.00 0.00 0.00 64 1009.2
20260509071236 32 135 0.0 0.0 0.00 0.00 0.00 64 1009.2
20260509070736 32 135 0.0 0.0 0.00 0.00 0.00 65 1009.3
20260509070235 32 135 0.0 0.0 0.00 0.00 0.00 65 1009.4
20260509065734 32 135 0.0 0.0 0.00 0.00 0.00 65 1009.5
20260509065234 32 140 0.0 0.0 0.00 0.00 0.00 65 1009.5
20260509064732 32 135 0.0 0.0 0.00 0.00 0.00 65 1009.7
20260509064231 32 157 0.0 0.0 0.00 0.00 0.00 65 1009.8
20260509063730 32 157 0.0 0.0 0.00 0.00 0.00 65 1009.8
20260509063228 32 135 0.0 0.0 0.00 0.00 0.00 66 1010.0
20260509062729 32 135 0.0 0.0 0.00 0.00 0.00 66 1010.1
20260509062226 32 135 0.0 0.0 0.00 0.00 0.00 66 1010.1
20260509061725 32 135 0.0 0.0 0.00 0.00 0.00 66 1010.2
20260509061224 32 135 0.0 0.0 0.00 0.00 0.00 66 1010.4
20260509060723 31 135 0.0 0.0 0.00 0.00 0.00 66 1010.5
20260509060223 31 180 0.0 0.0 0.00 0.00 0.00 67 1010.6
20260509055721 31 135 0.0 0.0 0.00 0.00 0.00 67 1010.7
20260509055220 31 135 0.0 0.0 0.00 0.00 0.00 67 1010.8
20260509054218 31 162 0.0 0.0 0.00 0.00 0.00 67 1011.0
20260509053718 31 157 0.0 0.0 0.00 0.00 0.00 68 1011.1
20260509053215 31 135 0.0 0.0 0.00 0.00 0.00 68 1011.2
20260509052715 31 135 0.0 0.0 0.00 0.00 0.00 68 1011.2
20260509052214 31 135 0.0 0.0 0.00 0.00 0.00 68 1011.4
20260509051713 31 135 0.0 0.0 0.00 0.00 0.00 68 1011.5
20260509051213 31 135 0.0 0.0 0.00 0.00 0.00 68 1011.6
20260509050710 31 135 0.0 0.0 0.00 0.00 0.00 68 1011.7
20260509050209 31 160 0.0 0.0 0.00 0.00 0.00 68 1011.7
20260509045708 31 171 0.0 0.0 0.00 0.00 0.00 69 1011.8
20260509045207 30 136 0.0 0.0 0.00 0.00 0.00 69 1011.9
20260509044707 30 135 0.0 0.0 0.00 0.00 0.00 69 1011.9
20260509044205 30 144 0.0 0.0 0.00 0.00 0.00 70 1012.0
20260509043704 30 137 0.0 0.0 0.00 0.00 0.00 70 1012.1
20260509043203 30 180 0.0 0.0 0.00 0.00 0.00 70 1012.2
20260509042702 30 135 0.0 0.0 0.00 0.00 0.00 70 1012.2
20260509042202 30 161 0.0 0.0 0.00 0.00 0.00 71 1012.3
20260509041700 30 153 0.0 0.0 0.00 0.00 0.00 71 1012.3
20260509040658 30 135 0.0 0.0 0.00 0.00 0.00 72 1012.5
20260509040157 30 138 0.0 0.0 0.00 0.00 0.00 72 1012.5
20260509035657 30 135 0.0 0.0 0.00 0.00 0.00 72 1012.6
20260509035154 30 180 0.0 0.0 0.00 0.00 0.00 72 1012.7
20260509034153 29 135 0.0 0.0 0.00 0.00 0.00 73 1012.7
20260509033652 29 180 0.0 0.0 0.00 0.00 0.00 73 1012.7
20260509033152 29 135 0.0 0.0 0.00 0.00 0.00 73 1012.7
20260509032649 29 135 0.0 0.0 0.00 0.00 0.00 73 1012.7
20260509032148 29 180 0.0 0.0 0.00 0.00 0.00 74 1012.7
20260509031647 29 138 0.0 0.0 0.00 0.00 0.00 74 1012.8
20260509031146 28 135 0.0 0.0 0.00 0.00 0.00 74 1012.8
20260509030646 28 135 0.0 0.0 0.00 0.00 0.00 74 1012.8
20260509025643 28 135 0.0 0.0 0.00 0.00 0.00 75 1012.9
20260509025142 28 135 0.0 0.0 0.00 0.00 0.00 75 1012.9
20260509024141 28 135 0.0 0.0 0.00 0.00 0.00 75 1012.8
20260509023639 28 135 0.0 0.0 0.00 0.00 0.00 75 1012.8
20260509022637 28 135 0.0 0.0 0.00 0.00 0.00 76 1012.8
20260509022136 28 135 0.0 0.0 0.00 0.00 0.00 76 1012.8
20260509021133 28 135 0.0 0.0 0.00 0.00 0.00 76 1012.9
20260509020632 28 135 0.0 0.0 0.00 0.00 0.00 76 1012.9
20260509020132 28 167 0.0 0.0 0.00 0.00 0.00 76 1012.8
20260509015631 28 157 0.0 0.0 0.00 0.00 0.00 76 1012.7
20260509015131 27 135 0.0 0.0 0.00 0.00 0.00 76 1012.8
20260509014628 27 135 0.0 0.0 0.00 0.00 0.00 76 1012.7
20260509014127 27 135 0.0 0.0 0.00 0.00 0.00 76 1012.8
20260509013626 27 135 0.0 0.0 0.00 0.00 0.00 76 1012.8
20260509013125 27 135 0.0 0.0 0.00 0.00 0.00 76 1012.7
20260509012624 27 135 0.0 0.0 0.00 0.00 0.00 76 1012.6
20260509012123 27 135 0.0 0.0 0.00 0.00 0.00 76 1012.7
20260509011622 27 135 0.0 0.0 0.00 0.00 0.00 76 1012.8
20260509011121 27 135 0.0 0.0 0.00 0.00 0.00 76 1012.7
20260509010620 27 135 0.0 0.0 0.00 0.00 0.00 76 1012.7
20260509005618 27 135 0.0 0.0 0.00 0.00 0.00 76 1012.6
20260509005117 27 135 0.0 0.0 0.00 0.00 0.00 76 1012.5
20260509004616 27 135 0.0 0.0 0.00 0.00 0.00 76 1012.6
20260509003615 27 135 0.0 0.0 0.00 0.00 0.00 76 1012.4
20260509003112 27 135 0.0 0.0 0.00 0.00 0.00 76 1012.4
20260509002611 27 135 0.0 0.0 0.00 0.00 0.00 76 1012.4
20260509001610 27 135 0.0 0.0 0.00 0.00 0.00 76 1012.2
20260509001110 27 135 0.0 0.0 0.00 0.00 0.00 76 1012.1
20260509000106 27 157 0.0 0.0 0.00 0.00 0.00 76 1012.0
20260508235104 27 135 0.0 0.0 0.00 0.00 0.00 76 1011.8
20260508234604 27 135 0.0 0.0 0.00 0.00 0.00 76 1011.7
20260508233100 27 135 0.0 0.0 0.00 0.00 0.00 76 1011.5
20260508232600 27 135 0.0 0.0 0.00 0.00 0.00 75 1011.4
20260508231557 27 135 0.0 0.0 0.00 0.00 0.00 75 1011.4
20260508231056 27 135 0.0 0.0 0.00 0.00 0.00 76 1011.2
20260508230054 27 135 0.0 0.0 0.00 0.00 0.00 75 1011.0
20260508225554 27 135 0.0 0.0 0.00 0.00 0.00 75 1011.1
20260508225051 27 135 0.0 0.0 0.00 0.00 0.00 75 1011.1
20260508224550 27 135 0.0 0.0 0.00 0.00 0.00 75 1011.0
20260508224050 27 135 0.0 0.0 0.00 0.00 0.00 75 1011.0
20260508223549 27 135 0.0 0.0 0.00 0.00 0.00 75 1010.9
20260508222546 27 157 0.0 0.0 0.00 0.00 0.00 75 1010.7
20260508222045 27 135 0.0 0.0 0.00 0.00 0.00 75 1010.7
20260508221544 27 157 0.0 0.0 0.00 0.00 0.00 75 1010.7
20260508221043 27 135 0.0 0.0 0.00 0.00 0.00 75 1010.7
20260508220543 27 135 0.0 0.0 0.00 0.00 0.00 75 1010.6
20260508220041 27 135 0.0 0.0 0.00 0.00 0.00 75 1010.4
20260508215540 27 135 0.0 0.0 0.00 0.00 0.00 75 1010.4
20260508215039 27 135 0.0 0.0 0.00 0.00 0.00 75 1010.3
20260508214538 27 135 0.0 0.0 0.00 0.00 0.00 75 1010.4
20260508214038 27 135 0.0 0.0 0.00 0.00 0.00 75 1010.3
20260508213536 27 135 0.0 0.0 0.00 0.00 0.00 75 1010.2
20260508213035 27 135 0.0 0.0 0.00 0.00 0.00 75 1010.2
20260508212033 27 157 0.0 0.0 0.00 0.00 0.00 75 1010.1
20260508211533 27 157 0.0 0.0 0.00 0.00 0.00 75 1010.1
20260508211031 27 157 0.0 0.0 0.00 0.00 0.00 75 1010.0
20260508210530 27 157 0.0 0.0 0.00 0.00 0.00 75 1009.9
20260508210029 27 157 0.0 0.0 0.00 0.00 0.00 75 1010.0
20260508205528 27 157 0.0 0.0 0.00 0.00 0.00 75 1010.1
20260508205028 27 157 0.0 0.0 0.00 0.00 0.00 75 1010.2
20260508204525 27 157 0.0 0.0 0.00 0.00 0.00 75 1010.2
20260508204024 27 157 0.0 0.0 0.00 0.00 0.00 75 1010.3
20260508203523 27 157 0.0 0.0 0.00 0.00 0.00 75 1010.3
20260508203022 27 157 0.0 0.0 0.00 0.00 0.00 75 1010.2
20260508202522 27 157 0.0 0.0 0.00 0.00 0.00 75 1010.2
20260508202020 27 157 0.0 0.0 0.00 0.00 0.00 75 1010.2
20260508201519 27 157 0.0 0.0 0.00 0.00 0.00 75 1010.1
20260508201018 27 157 0.0 0.0 0.00 0.00 0.00 74 1010.3
20260508200017 27 157 0.0 0.0 0.00 0.00 0.00 74 1010.3
20260508195014 27 157 0.0 0.0 0.00 0.00 0.00 74 1010.1
20260508193512 27 135 0.0 0.0 0.00 0.00 0.00 74 1010.3
20260508192509 27 135 0.0 0.0 0.00 0.00 0.00 74 1010.3
20260508191507 27 135 0.0 0.0 0.00 0.00 0.00 73 1010.3
20260508185503 28 135 0.0 0.0 0.00 0.00 0.00 72 1010.5
20260508183500 28 135 0.0 0.0 0.00 0.00 0.00 72 1010.8
20260508181956 28 135 0.0 0.0 0.00 0.00 0.00 72 1011.2
20260508181455 28 135 0.0 0.0 0.00 0.00 0.00 72 1011.1
20260508180955 28 135 0.0 0.0 0.00 0.00 0.00 72 1011.3
20260508175952 28 135 0.0 0.0 0.00 0.00 0.00 72 1011.3
20260508175451 28 135 0.0 0.0 0.00 0.00 0.00 72 1011.2
20260508174950 28 135 0.0 0.0 0.00 0.00 0.00 72 1011.3
20260508174450 28 135 0.0 0.0 0.00 0.00 0.00 72 1011.3
20260508173947 28 135 0.0 0.0 0.00 0.00 0.00 72 1011.4
20260508173446 28 135 0.0 0.0 0.00 0.00 0.00 72 1011.4
20260508172946 28 135 0.0 0.0 0.00 0.00 0.00 72 1011.7
20260508171945 28 135 0.0 0.0 0.00 0.00 0.00 72 1012.0
20260508171442 28 135 0.0 0.0 0.00 0.00 0.00 72 1012.1
20260508170941 28 135 0.0 0.0 0.00 0.00 0.00 72 1012.1
20260508165939 28 135 0.0 0.0 0.00 0.00 0.00 72 1012.1
20260508165439 28 135 0.0 0.0 0.00 0.00 0.00 72 1012.2
20260508164937 28 135 0.0 0.0 0.00 0.00 0.00 72 1012.3